Time,TemperatureF,DewpointF,PressureIn,WindDirection,WindDirectionDegrees,WindSpeedMPH,WindSpeedGustMPH,Humidity,HourlyPrecipIn,Conditions,Clouds,dailyrainin,SoftwareType,DateUTC
2013-03-25 00:00:00,30.7,25.6,29.75,NE,45,6.0,9.2,81,0.00,RA,OVC,0.00,WeatherDisplay:10.37,2013-03-25 00:00:00,
2013-03-25 00:05:00,30.7,25.6,29.75,East,90,18.6,18.6,81,0.00,RA,OVC,0.00,WeatherDisplay:10.37,2013-03-25 00:05:00,
2013-03-25 00:10:00,30.7,25.6,29.75,North,0,14.2,15.0,81,0.00,,OVC,0.00,WeatherDisplay:10.37,2013-03-25 00:10:00,
2013-03-25 00:15:00,30.7,25.6,29.75,NE,45,11.2,11.5,81,0.00,,OVC,0.00,WeatherDisplay:10.37,2013-03-25 00:15:00,
2013-03-25 00:20:00,30.7,25.6,29.75,ENE,68,9.9,9.9,81,0.00,,OVC,0.00,WeatherDisplay:10.37,2013-03-25 00:20:00,
2013-03-25 00:25:00,30.7,25.6,29.75,NE,45,6.7,12.7,81,0.00,,OVC,0.00,WeatherDisplay:10.37,2013-03-25 00:25:00,
2013-03-25 00:30:00,30.7,25.6,29.75,ENE,68,14.4,17.3,81,0.00,,OVC,0.00,WeatherDisplay:10.37,2013-03-25 00:30:00,
2013-03-25 00:35:00,30.7,25.6,29.75,NNE,22,12.7,12.7,81,0.00,,OVC,0.00,WeatherDisplay:10.37,2013-03-25 00:35:00,
2013-03-25 00:40:00,30.7,25.6,29.75,ENE,68,12.2,12.2,81,0.00,,OVC,0.00,WeatherDisplay:10.37,2013-03-25 00:40:00,
2013-03-25 00:45:00,30.7,25.6,29.75,NE,45,4.5,8.1,81,0.00,,OVC,0.00,WeatherDisplay:10.37,2013-03-25 00:45:00,
2013-03-25 00:50:00,30.7,25.6,29.75,NW,315,6.4,6.4,81,0.00,,OVC,0.00,WeatherDisplay:10.37,2013-03-25 00:50:00,
2013-03-25 00:55:00,30.7,25.6,29.75,ESE,112,10.5,11.5,81,0.00,,OVC,0.00,WeatherDisplay:10.37,2013-03-25 00:55:00,
2013-03-25 01:01:00,30.7,25.6,29.75,NE,45,13.3,13.3,81,0.00,,OVC,0.00,WeatherDisplay:10.37,2013-03-25 01:01:00,
2013-03-25 01:06:00,30.7,25.6,29.75,NE,45,13.6,13.8,81,0.00,,OVC,0.00,WeatherDisplay:10.37,2013-03-25 01:06:00,
2013-03-25 01:11:00,30.7,25.6,29.75,ESE,112,13.3,13.3,81,0.00,,OVC,0.00,WeatherDisplay:10.37,2013-03-25 01:11:00,
2013-03-25 01:16:00,30.7,25.6,29.75,ENE,68,10.0,11.5,81,0.00,,OVC,0.00,WeatherDisplay:10.37,2013-03-25 01:16:00,
2013-03-25 01:21:00,30.6,25.4,29.75,ENE,68,14.9,15.0,81,0.00,,OVC,0.00,WeatherDisplay:10.37,2013-03-25 01:21:00,
2013-03-25 01:26:00,30.6,25.4,29.75,NNE,22,10.9,11.5,81,0.00,,OVC,0.00,WeatherDisplay:10.37,2013-03-25 01:26:00,
2013-03-25 01:31:00,30.6,25.4,29.75,ENE,68,8.1,10.4,81,0.00,,OVC,0.00,WeatherDisplay:10.37,2013-03-25 01:31:00,
2013-03-25 01:36:00,30.6,25.4,29.75,North,0,8.3,8.3,81,0.00,,OVC,0.00,WeatherDisplay:10.37,2013-03-25 01:36:00,
2013-03-25 01:41:00,30.6,25.4,29.75,NE,45,8.6,9.2,81,0.00,,OVC,0.00,WeatherDisplay:10.37,2013-03-25 01:41:00,
2013-03-25 01:46:00,30.6,25.4,29.75,ENE,68,13.2,13.8,81,0.00,,OVC,0.00,WeatherDisplay:10.37,2013-03-25 01:46:00,
2013-03-25 01:51:00,30.6,25.4,29.75,NNE,22,11.2,11.5,81,0.00,,OVC,0.00,WeatherDisplay:10.37,2013-03-25 01:51:00,
2013-03-25 01:56:00,30.6,25.4,29.75,NE,45,12.7,12.7,81,0.00,,OVC,0.00,WeatherDisplay:10.37,2013-03-25 01:56:00,
2013-03-25 02:01:00,30.6,25.4,29.75,NE,45,5.6,15.0,81,0.00,,OVC,0.00,WeatherDisplay:10.37,2013-03-25 02:01:00,
2013-03-25 02:06:00,30.6,25.4,29.75,ENE,68,13.9,15.0,81,0.00,,OVC,0.00,WeatherDisplay:10.37,2013-03-25 02:06:00,
2013-03-25 02:11:00,30.6,25.4,29.75,NE,45,5.7,6.9,81,0.00,,OVC,0.00,WeatherDisplay:10.37,2013-03-25 02:11:00,
2013-03-25 02:16:00,30.4,25.2,29.75,NE,45,11.2,11.5,81,0.00,,OVC,0.00,WeatherDisplay:10.37,2013-03-25 02:16:00,
2013-03-25 02:21:00,30.4,25.2,29.75,ESE,112,5.7,9.2,81,0.00,,OVC,0.00,WeatherDisplay:10.37,2013-03-25 02:21:00,
2013-03-25 02:26:00,30.6,25.4,29.75,ESE,112,8.7,8.7,81,0.00,,OVC,0.00,WeatherDisplay:10.37,2013-03-25 02:26:00,
2013-03-25 02:31:00,30.6,25.4,29.75,ENE,68,5.8,5.8,81,0.00,,OVC,0.00,WeatherDisplay:10.37,2013-03-25 02:31:00,
2013-03-25 02:36:00,30.6,25.4,29.75,NNE,22,4.2,4.6,81,0.00,,OVC,0.00,WeatherDisplay:10.37,2013-03-25 02:36:00,
2013-03-25 02:41:00,30.4,25.2,29.75,ESE,112,2.3,2.3,81,0.00,,OVC,0.00,WeatherDisplay:10.37,2013-03-25 02:41:00,
2013-03-25 02:46:00,30.4,25.2,29.75,ENE,68,11.6,11.6,81,0.00,,OVC,0.00,WeatherDisplay:10.37,2013-03-25 02:46:00,
2013-03-25 02:51:00,30.4,25.2,29.75,NE,45,4.7,9.2,81,0.00,,OVC,0.00,WeatherDisplay:10.37,2013-03-25 02:51:00,
2013-03-25 02:56:00,30.2,25.1,29.75,NE,45,12.5,12.7,81,0.00,,OVC,0.00,WeatherDisplay:10.37,2013-03-25 02:56:00,
2013-03-25 03:01:00,30.2,25.1,29.75,NE,45,11.2,11.5,81,0.00,,OVC,0.00,WeatherDisplay:10.37,2013-03-25 03:01:00,
2013-03-25 03:06:00,30.4,25.2,29.75,NE,45,6.2,11.5,81,0.00,,OVC,0.00,WeatherDisplay:10.37,2013-03-25 03:06:00,
2013-03-25 03:11:00,30.4,25.2,29.74,ENE,68,4.9,6.9,81,0.00,,OVC,0.00,WeatherDisplay:10.37,2013-03-25 03:11:00,
2013-03-25 03:16:00,30.4,25.2,29.74,SE,135,6.6,8.1,81,0.00,,OVC,0.00,WeatherDisplay:10.37,2013-03-25 03:16:00,
2013-03-25 03:21:00,30.4,25.5,29.74,ESE,112,6.8,6.8,82,0.00,,OVC,0.00,WeatherDisplay:10.37,2013-03-25 03:21:00,
2013-03-25 03:27:00,30.4,25.5,29.74,NNE,22,10.5,11.5,82,0.00,,OVC,0.00,WeatherDisplay:10.37,2013-03-25 03:27:00,
2013-03-25 03:32:00,30.4,25.5,29.74,NNE,22,8.7,9.2,82,0.00,,OVC,0.00,WeatherDisplay:10.37,2013-03-25 03:32:00,
2013-03-25 03:37:00,30.2,25.4,29.74,East,90,2.7,4.6,82,0.00,,OVC,0.00,WeatherDisplay:10.37,2013-03-25 03:37:00,
2013-03-25 03:42:00,30.2,25.4,29.74,ENE,68,2.5,3.6,82,0.00,,OVC,0.00,WeatherDisplay:10.37,2013-03-25 03:42:00,
2013-03-25 03:47:00,30.0,25.2,29.74,NE,45,5.1,13.8,82,0.00,,OVC,0.00,WeatherDisplay:10.37,2013-03-25 03:47:00,
2013-03-25 03:52:00,30.0,25.2,29.74,ENE,68,6.9,6.9,82,0.00,,OVC,0.00,WeatherDisplay:10.37,2013-03-25 03:52:00,
2013-03-25 03:57:00,30.0,25.2,29.74,NNE,22,8.6,9.2,82,0.00,,OVC,0.00,WeatherDisplay:10.37,2013-03-25 03:57:00,
2013-03-25 04:00:00,30.0,25.2,29.74,ENE,68,2.5,4.5,82,0.00,,OVC,0.00,WeatherDisplay:10.37,2013-03-25 04:00:00,
2013-03-25 04:01:00,30.0,25.2,29.74,ENE,68,2.5,4.6,82,0.00,,OVC,0.00,WeatherDisplay:10.37,2013-03-25 04:01:00,
2013-03-25 04:06:00,30.0,25.2,29.74,NNE,22,6.5,9.2,82,0.00,,OVC,0.00,WeatherDisplay:10.37,2013-03-25 04:06:00,
2013-03-25 04:11:00,30.0,25.2,29.74,ESE,112,1.6,1.6,82,0.00,,OVC,0.00,WeatherDisplay:10.37,2013-03-25 04:11:00,
2013-03-25 04:17:00,30.0,25.2,29.74,NE,45,4.2,5.8,82,0.00,,OVC,0.00,WeatherDisplay:10.37,2013-03-25 04:17:00,
2013-03-25 04:22:00,30.0,24.9,29.74,NNE,22,8.0,8.1,81,0.00,,OVC,0.00,WeatherDisplay:10.37,2013-03-25 04:22:00,
2013-03-25 04:27:00,30.0,24.9,29.74,NE,45,10.5,15.0,81,0.00,,OVC,0.00,WeatherDisplay:10.37,2013-03-25 04:27:00,
2013-03-25 04:32:00,30.0,24.9,29.74,NNE,22,4.7,8.1,81,0.00,,OVC,0.00,WeatherDisplay:10.37,2013-03-25 04:32:00,
2013-03-25 04:37:00,30.0,24.9,29.74,ENE,68,8.0,8.1,81,0.00,,OVC,0.00,WeatherDisplay:10.37,2013-03-25 04:37:00,
2013-03-25 04:42:00,30.2,25.1,29.74,East,90,8.2,8.2,81,0.00,,OVC,0.00,WeatherDisplay:10.37,2013-03-25 04:42:00,
2013-03-25 04:47:00,30.2,25.1,29.74,East,90,6.7,6.9,81,0.00,,OVC,0.00,WeatherDisplay:10.37,2013-03-25 04:47:00,
2013-03-25 04:52:00,30.4,25.2,29.74,ENE,68,3.3,3.5,81,0.00,,OVC,0.00,WeatherDisplay:10.37,2013-03-25 04:52:00,
2013-03-25 04:57:00,30.4,25.2,29.74,ENE,68,9.7,9.7,81,0.00,,OVC,0.00,WeatherDisplay:10.37,2013-03-25 04:57:00,
2013-03-25 05:03:00,30.4,25.2,29.74,ENE,68,4.5,4.6,81,0.00,,OVC,0.00,WeatherDisplay:10.37,2013-03-25 05:03:00,
2013-03-25 05:08:00,30.4,25.2,29.75,NNE,22,5.2,6.0,81,0.00,,OVC,0.00,WeatherDisplay:10.37,2013-03-25 05:08:00,
2013-03-25 05:13:00,30.6,25.4,29.75,ESE,112,6.9,10.4,81,0.00,,OVC,0.00,WeatherDisplay:10.37,2013-03-25 05:13:00,
2013-03-25 05:18:00,30.6,25.4,29.75,South,180,9.2,9.2,81,0.00,,OVC,0.00,WeatherDisplay:10.37,2013-03-25 05:18:00,
2013-03-25 05:23:00,30.6,25.4,29.75,East,90,4.2,4.6,81,0.00,,OVC,0.00,WeatherDisplay:10.37,2013-03-25 05:23:00,
2013-03-25 05:28:00,30.7,25.6,29.75,North,0,6.5,6.9,81,0.00,,OVC,0.00,WeatherDisplay:10.37,2013-03-25 05:28:00,
2013-03-25 05:33:00,30.7,25.6,29.75,ESE,112,2.5,5.8,81,0.00,,OVC,0.00,WeatherDisplay:10.37,2013-03-25 05:33:00,
2013-03-25 05:38:00,30.7,25.6,29.75,ENE,68,5.8,8.1,81,0.00,,OVC,0.00,WeatherDisplay:10.37,2013-03-25 05:38:00,
2013-03-25 05:43:00,30.7,25.6,29.75,ENE,68,2.2,2.3,81,0.00,,OVC,0.00,WeatherDisplay:10.37,2013-03-25 05:43:00,
2013-03-25 05:48:00,30.7,25.6,29.75,ENE,68,11.6,12.7,81,0.00,,OVC,0.00,WeatherDisplay:10.37,2013-03-25 05:48:00,
2013-03-25 05:53:00,30.7,25.6,29.75,NE,45,7.4,7.4,81,0.00,,OVC,0.00,WeatherDisplay:10.37,2013-03-25 05:53:00,
2013-03-25 05:58:00,30.7,25.6,29.75,NNW,338,6.1,6.1,81,0.00,,OVC,0.00,WeatherDisplay:10.37,2013-03-25 05:58:00,
2013-03-25 06:03:00,30.7,25.6,29.75,NNE,22,4.3,11.5,81,0.00,,OVC,0.00,WeatherDisplay:10.37,2013-03-25 06:03:00,
2013-03-25 06:08:00,30.7,25.6,29.75,NE,45,7.9,11.5,81,0.00,,OVC,0.00,WeatherDisplay:10.37,2013-03-25 06:08:00,
2013-03-25 06:13:00,30.7,25.6,29.75,NE,45,18.1,18.4,81,0.00,,OVC,0.00,WeatherDisplay:10.37,2013-03-25 06:13:00,
2013-03-25 06:18:00,30.7,25.6,29.75,NNE,22,5.1,7.4,81,0.00,,OVC,0.00,WeatherDisplay:10.37,2013-03-25 06:18:00,
2013-03-25 06:23:00,30.7,25.6,29.75,NE,45,4.6,6.9,81,0.00,,OVC,0.00,WeatherDisplay:10.37,2013-03-25 06:23:00,
2013-03-25 06:28:00,30.7,25.6,29.75,NNE,22,15.4,16.1,81,0.00,,OVC,0.00,WeatherDisplay:10.37,2013-03-25 06:28:00,
2013-03-25 06:33:00,30.7,25.6,29.75,NE,45,3.5,6.9,81,0.00,,OVC,0.00,WeatherDisplay:10.37,2013-03-25 06:33:00,
2013-03-25 06:38:00,30.9,25.8,29.75,East,90,10.5,10.5,81,0.00,,OVC,0.00,WeatherDisplay:10.37,2013-03-25 06:38:00,
2013-03-25 06:43:00,30.7,25.6,29.75,ESE,112,3.4,0.0,81,0.00,,OVC,0.00,WeatherDisplay:10.37,2013-03-25 06:43:00,
2013-03-25 06:48:00,30.9,25.5,29.75,NNE,22,3.0,3.5,80,0.00,,OVC,0.00,WeatherDisplay:10.37,2013-03-25 06:48:00,
2013-03-25 06:53:00,30.9,25.5,29.75,SE,135,9.2,9.2,80,0.00,,OVC,0.00,WeatherDisplay:10.37,2013-03-25 06:53:00,
2013-03-25 06:58:00,30.9,25.5,29.75,East,90,9.4,9.4,80,0.00,,OVC,0.00,WeatherDisplay:10.37,2013-03-25 06:58:00,
2013-03-25 07:03:00,31.1,25.7,29.75,NNE,22,5.7,5.7,80,0.00,,OVC,0.00,WeatherDisplay:10.37,2013-03-25 07:03:00,
2013-03-25 07:08:00,31.1,25.7,29.75,NNE,22,4.2,8.1,80,0.00,,OVC,0.00,WeatherDisplay:10.37,2013-03-25 07:08:00,
2013-03-25 07:13:00,31.3,26.1,29.75,NNE,22,8.0,8.0,81,0.00,,OVC,0.00,WeatherDisplay:10.37,2013-03-25 07:13:00,
2013-03-25 07:18:00,31.3,26.1,29.75,NNE,22,2.2,13.8,81,0.00,,OVC,0.00,WeatherDisplay:10.37,2013-03-25 07:18:00,
2013-03-25 07:23:00,31.3,26.1,29.75,ENE,68,5.2,6.9,81,0.00,,OVC,0.00,WeatherDisplay:10.37,2013-03-25 07:23:00,
2013-03-25 07:28:00,31.3,26.1,29.75,NNE,22,0.4,8.1,81,0.00,,OVC,0.00,WeatherDisplay:10.37,2013-03-25 07:28:00,
2013-03-25 07:33:00,31.3,26.1,29.75,ESE,112,8.0,8.0,81,0.00,,OVC,0.00,WeatherDisplay:10.37,2013-03-25 07:33:00,
2013-03-25 07:38:00,31.3,26.1,29.75,ESE,112,6.6,6.9,81,0.00,,OVC,0.00,WeatherDisplay:10.37,2013-03-25 07:38:00,
2013-03-25 07:43:00,31.3,26.1,29.75,ENE,68,5.1,8.1,81,0.00,,OVC,0.00,WeatherDisplay:10.37,2013-03-25 07:43:00,
2013-03-25 07:48:00,31.6,26.5,29.76,East,90,8.8,9.2,81,0.00,,OVC,0.00,WeatherDisplay:10.37,2013-03-25 07:48:00,
2013-03-25 07:53:00,31.8,26.7,29.76,ESE,112,5.8,9.2,81,0.00,,OVC,0.00,WeatherDisplay:10.37,2013-03-25 07:53:00,
2013-03-25 07:58:00,32.2,27.0,29.75,ESE,112,11.1,15.0,81,0.00,,OVC,0.00,WeatherDisplay:10.37,2013-03-25 07:58:00,
2013-03-25 08:03:00,32.2,27.0,29.75,NE,45,2.2,6.9,81,0.00,,OVC,0.00,WeatherDisplay:10.37,2013-03-25 08:03:00,
2013-03-25 08:08:00,32.5,27.4,29.75,ENE,68,8.7,11.5,81,0.00,,OVC,0.00,WeatherDisplay:10.37,2013-03-25 08:08:00,
2013-03-25 08:13:00,32.5,27.4,29.76,ENE,68,11.2,13.0,81,0.00,,OVC,0.00,WeatherDisplay:10.37,2013-03-25 08:13:00,
2013-03-25 08:18:00,32.5,27.1,29.75,ENE,68,1.6,6.9,80,0.00,,OVC,0.00,WeatherDisplay:10.37,2013-03-25 08:18:00,
2013-03-25 08:23:00,32.5,27.1,29.75,ENE,68,6.8,8.3,80,0.00,,OVC,0.00,WeatherDisplay:10.37,2013-03-25 08:23:00,
2013-03-25 08:28:00,32.5,27.1,29.75,ENE,68,0.6,9.2,80,0.00,,OVC,0.00,WeatherDisplay:10.37,2013-03-25 08:28:00,
2013-03-25 08:33:00,32.5,27.1,29.75,ENE,68,4.1,7.4,80,0.00,,OVC,0.00,WeatherDisplay:10.37,2013-03-25 08:33:00,
2013-03-25 08:38:00,32.7,27.2,29.75,NE,45,7.6,8.1,80,0.00,,OVC,0.00,WeatherDisplay:10.37,2013-03-25 08:38:00,
2013-03-25 08:43:00,32.7,27.2,29.75,East,90,4.1,4.5,80,0.00,,OVC,0.00,WeatherDisplay:10.37,2013-03-25 08:43:00,
2013-03-25 08:48:00,32.7,26.9,29.76,SE,135,8.0,9.2,79,0.00,,OVC,0.00,WeatherDisplay:10.37,2013-03-25 08:48:00,
2013-03-25 08:53:00,32.7,26.9,29.76,North,0,14.5,16.1,79,0.00,,OVC,0.00,WeatherDisplay:10.37,2013-03-25 08:53:00,
2013-03-25 08:59:00,32.5,26.7,29.76,NE,45,10.1,11.5,79,0.00,,OVC,0.00,WeatherDisplay:10.37,2013-03-25 08:59:00,
2013-03-25 09:04:00,32.7,26.6,29.76,NE,45,6.6,14.1,78,0.00,,OVC,0.00,WeatherDisplay:10.37,2013-03-25 09:04:00,
2013-03-25 09:09:00,32.7,26.6,29.76,SE,135,1.8,2.3,78,0.00,,OVC,0.00,WeatherDisplay:10.37,2013-03-25 09:09:00,
2013-03-25 09:14:00,32.7,26.6,29.76,NNE,22,8.6,10.4,78,0.00,,OVC,0.00,WeatherDisplay:10.37,2013-03-25 09:14:00,
2013-03-25 09:19:00,32.7,26.6,29.76,NNE,22,6.0,15.0,78,0.00,,OVC,0.00,WeatherDisplay:10.37,2013-03-25 09:19:00,
2013-03-25 09:24:00,32.7,26.6,29.75,ENE,68,8.8,11.5,78,0.00,,OVC,0.00,WeatherDisplay:10.37,2013-03-25 09:24:00,
2013-03-25 09:29:00,32.7,26.6,29.75,ENE,68,3.2,3.5,78,0.00,,OVC,0.00,WeatherDisplay:10.37,2013-03-25 09:29:00,
2013-03-25 09:34:00,33.1,27.0,29.75,East,90,5.7,5.8,78,0.00,,OVC,0.00,WeatherDisplay:10.37,2013-03-25 09:34:00,
2013-03-25 09:39:00,33.1,26.7,29.75,East,90,8.7,8.7,77,0.00,,OVC,0.00,WeatherDisplay:10.37,2013-03-25 09:39:00,
2013-03-25 09:44:00,33.1,26.7,29.76,WNW,292,7.5,8.1,77,0.00,,OVC,0.00,WeatherDisplay:10.37,2013-03-25 09:44:00,
2013-03-25 09:49:00,33.1,26.7,29.76,East,90,8.1,8.1,77,0.00,,OVC,0.00,WeatherDisplay:10.37,2013-03-25 09:49:00,
2013-03-25 09:54:00,33.1,26.3,29.76,NNE,22,9.3,9.3,76,0.00,,OVC,0.00,WeatherDisplay:10.37,2013-03-25 09:54:00,
2013-03-25 09:59:00,33.1,26.3,29.76,West,270,7.0,7.0,76,0.00,,OVC,0.00,WeatherDisplay:10.37,2013-03-25 09:59:00,
2013-03-25 10:04:00,33.1,26.3,29.76,ENE,68,7.3,8.1,76,0.00,,OVC,0.00,WeatherDisplay:10.37,2013-03-25 10:04:00,
2013-03-25 10:09:00,32.9,26.2,29.76,NE,45,6.5,6.5,76,0.00,,OVC,0.00,WeatherDisplay:10.37,2013-03-25 10:09:00,
2013-03-25 10:14:00,32.9,26.2,29.76,NE,45,17.7,18.4,76,0.00,,OVC,0.00,WeatherDisplay:10.37,2013-03-25 10:14:00,
2013-03-25 10:19:00,32.9,26.2,29.76,NE,45,4.1,8.1,76,0.00,,OVC,0.00,WeatherDisplay:10.37,2013-03-25 10:19:00,
2013-03-25 10:24:00,33.1,26.3,29.76,NE,45,9.6,16.1,76,0.00,,OVC,0.00,WeatherDisplay:10.37,2013-03-25 10:24:00,
2013-03-25 10:29:00,33.1,26.3,29.76,ESE,112,12.5,12.5,76,0.00,,OVC,0.00,WeatherDisplay:10.37,2013-03-25 10:29:00,
2013-03-25 10:34:00,33.1,26.3,29.76,NE,45,8.5,12.7,76,0.00,,OVC,0.00,WeatherDisplay:10.37,2013-03-25 10:34:00,
2013-03-25 10:39:00,33.3,26.5,29.76,ENE,68,9.4,9.4,76,0.00,,OVC,0.00,WeatherDisplay:10.37,2013-03-25 10:39:00,
2013-03-25 10:44:00,33.6,26.9,29.76,ESE,112,8.9,10.4,76,0.00,,OVC,0.00,WeatherDisplay:10.37,2013-03-25 10:44:00,
2013-03-25 10:49:00,33.6,26.9,29.76,ENE,68,11.0,11.0,76,0.00,,OVC,0.00,WeatherDisplay:10.37,2013-03-25 10:49:00,
2013-03-25 10:54:00,33.6,26.9,29.75,ENE,68,5.7,9.2,76,0.00,,OVC,0.00,WeatherDisplay:10.37,2013-03-25 10:54:00,
2013-03-25 10:59:00,34.2,27.4,29.75,East,90,5.4,5.8,76,0.00,,OVC,0.00,WeatherDisplay:10.37,2013-03-25 10:59:00,
2013-03-25 11:04:00,34.3,27.6,29.75,ENE,68,5.4,5.4,76,0.00,,OVC,0.00,WeatherDisplay:10.37,2013-03-25 11:04:00,
2013-03-25 11:09:00,34.5,27.4,29.75,NE,45,6.0,11.5,75,0.00,,OVC,0.00,WeatherDisplay:10.37,2013-03-25 11:09:00,
2013-03-25 11:14:00,34.5,27.1,29.75,ENE,68,11.4,12.7,74,0.00,,OVC,0.00,WeatherDisplay:10.37,2013-03-25 11:14:00,
2013-03-25 11:19:00,34.5,27.1,29.76,ESE,112,5.9,5.9,74,0.00,,OVC,0.00,WeatherDisplay:10.37,2013-03-25 11:19:00,
2013-03-25 11:24:00,34.5,27.1,29.76,NE,45,4.6,5.8,74,0.00,,OVC,0.00,WeatherDisplay:10.37,2013-03-25 11:24:00,
2013-03-25 11:29:00,34.5,26.8,29.76,NE,45,7.7,18.4,73,0.00,,OVC,0.00,WeatherDisplay:10.37,2013-03-25 11:29:00,
2013-03-25 11:34:00,34.3,26.9,29.76,NE,45,13.2,13.8,74,0.00,,OVC,0.00,WeatherDisplay:10.37,2013-03-25 11:34:00,
2013-03-25 11:39:00,34.3,26.9,29.76,NE,45,7.4,10.4,74,0.00,,OVC,0.00,WeatherDisplay:10.37,2013-03-25 11:39:00,
2013-03-25 11:44:00,34.5,27.4,29.75,NNE,22,8.8,18.4,75,0.00,,OVC,0.00,WeatherDisplay:10.37,2013-03-25 11:44:00,
2013-03-25 11:49:00,34.5,27.4,29.75,ENE,68,5.0,6.9,75,0.00,,OVC,0.00,WeatherDisplay:10.37,2013-03-25 11:49:00,
2013-03-25 11:54:00,35.2,27.8,29.75,NNE,22,9.9,12.7,74,0.00,,OVC,0.00,WeatherDisplay:10.37,2013-03-25 11:54:00,
2013-03-25 11:59:00,35.1,27.6,29.75,ENE,68,6.1,15.2,74,0.00,,OVC,0.00,WeatherDisplay:10.37,2013-03-25 11:59:00,
2013-03-25 12:04:00,34.9,27.1,29.75,NNE,22,6.2,6.9,73,0.00,,OVC,0.00,WeatherDisplay:10.37,2013-03-25 12:04:00,
2013-03-25 12:09:00,34.7,27.3,29.76,East,90,14.0,17.0,74,0.00,,OVC,0.00,WeatherDisplay:10.37,2013-03-25 12:09:00,
2013-03-25 12:14:00,34.5,27.1,29.76,ENE,68,4.7,4.7,74,0.00,,OVC,0.00,WeatherDisplay:10.37,2013-03-25 12:14:00,
2013-03-25 12:19:00,34.7,27.6,29.76,ENE,68,17.9,18.4,75,0.00,,OVC,0.00,WeatherDisplay:10.37,2013-03-25 12:19:00,
2013-03-25 12:24:00,34.9,27.8,29.76,NE,45,7.3,8.1,75,0.00,,OVC,0.00,WeatherDisplay:10.37,2013-03-25 12:24:00,
2013-03-25 12:30:00,35.2,28.1,29.76,ENE,68,12.7,12.7,75,0.00,,OVC,0.00,WeatherDisplay:10.37,2013-03-25 12:30:00,
2013-03-25 12:35:00,35.2,28.1,29.76,NNE,22,12.7,12.7,75,0.00,,OVC,0.00,WeatherDisplay:10.37,2013-03-25 12:35:00,
2013-03-25 12:40:00,35.2,28.1,29.76,ENE,68,7.6,8.1,75,0.00,,OVC,0.00,WeatherDisplay:10.37,2013-03-25 12:40:00,
2013-03-25 12:45:00,35.4,28.3,29.75,East,90,8.8,8.8,75,0.00,,OVC,0.00,WeatherDisplay:10.37,2013-03-25 12:45:00,
2013-03-25 12:50:00,35.8,28.6,29.75,ENE,68,11.8,11.8,75,0.00,,OVC,0.00,WeatherDisplay:10.37,2013-03-25 12:50:00,
2013-03-25 12:55:00,35.4,28.0,29.75,NNE,22,12.1,12.7,74,0.00,,OVC,0.00,WeatherDisplay:10.37,2013-03-25 12:55:00,
2013-03-25 13:00:00,35.8,28.3,29.76,NNE,22,15.7,17.3,74,0.00,,OVC,0.00,WeatherDisplay:10.37,2013-03-25 13:00:00,
2013-03-25 13:05:00,36.1,28.6,29.76,East,90,6.2,9.2,74,0.00,,OVC,0.00,WeatherDisplay:10.37,2013-03-25 13:05:00,
2013-03-25 13:10:00,36.1,28.3,29.75,ENE,68,15.0,15.0,73,0.00,,OVC,0.00,WeatherDisplay:10.37,2013-03-25 13:10:00,
2013-03-25 13:15:00,35.8,28.0,29.75,East,90,12.2,13.8,73,0.00,,OVC,0.00,WeatherDisplay:10.37,2013-03-25 13:15:00,
2013-03-25 13:20:00,35.4,27.6,29.75,ENE,68,12.5,12.7,73,0.00,,OVC,0.00,WeatherDisplay:10.37,2013-03-25 13:20:00,
2013-03-25 13:25:00,35.4,28.0,29.75,ENE,68,12.4,12.4,74,0.00,,OVC,0.00,WeatherDisplay:10.37,2013-03-25 13:25:00,
2013-03-25 13:30:00,35.8,27.6,29.75,East,90,7.2,11.5,72,0.00,,OVC,0.00,WeatherDisplay:10.37,2013-03-25 13:30:00,
2013-03-25 13:35:00,35.8,27.6,29.75,North,0,17.9,17.9,72,0.00,,OVC,0.00,WeatherDisplay:10.37,2013-03-25 13:35:00,
2013-03-25 13:40:00,36.0,28.1,29.75,NNE,22,11.5,13.8,73,0.00,,OVC,0.00,WeatherDisplay:10.37,2013-03-25 13:40:00,
2013-03-25 13:45:00,36.1,28.0,29.75,NNE,22,13.7,13.7,72,0.00,,OVC,0.00,WeatherDisplay:10.37,2013-03-25 13:45:00,
2013-03-25 13:50:00,35.8,27.6,29.75,NNE,22,12.6,12.7,72,0.00,,OVC,0.00,WeatherDisplay:10.37,2013-03-25 13:50:00,
2013-03-25 13:55:00,35.8,27.6,29.75,North,0,15.2,15.2,72,0.00,,OVC,0.00,WeatherDisplay:10.37,2013-03-25 13:55:00,
2013-03-25 14:00:00,35.8,27.6,29.75,ENE,68,13.2,13.2,72,0.00,,OVC,0.00,WeatherDisplay:10.37,2013-03-25 14:00:00,
2013-03-25 14:05:00,35.8,28.0,29.75,WNW,292,5.0,5.0,73,0.00,,OVC,0.00,WeatherDisplay:10.37,2013-03-25 14:05:00,
2013-03-25 14:10:00,35.8,28.0,29.74,East,90,14.3,14.3,73,0.00,,OVC,0.00,WeatherDisplay:10.37,2013-03-25 14:10:00,
2013-03-25 14:15:00,35.8,27.6,29.75,NE,45,6.3,6.3,72,0.00,,OVC,0.00,WeatherDisplay:10.37,2013-03-25 14:15:00,
2013-03-25 14:20:00,35.8,27.6,29.74,East,90,8.0,8.1,72,0.00,,OVC,0.00,WeatherDisplay:10.37,2013-03-25 14:20:00,
2013-03-25 14:25:00,35.8,27.6,29.74,NE,45,5.5,13.8,72,0.00,,OVC,0.00,WeatherDisplay:10.37,2013-03-25 14:25:00,
2013-03-25 14:30:00,35.8,27.6,29.74,NNE,22,15.0,15.0,72,0.00,,OVC,0.00,WeatherDisplay:10.37,2013-03-25 14:30:00,
2013-03-25 14:35:00,35.4,27.3,29.74,East,90,9.5,9.5,72,0.00,,OVC,0.00,WeatherDisplay:10.37,2013-03-25 14:35:00,
2013-03-25 14:40:00,35.8,27.6,29.74,NNE,22,8.5,9.2,72,0.00,,OVC,0.00,WeatherDisplay:10.37,2013-03-25 14:40:00,
2013-03-25 14:45:00,35.8,27.6,29.74,ENE,68,10.8,15.0,72,0.00,,OVC,0.00,WeatherDisplay:10.37,2013-03-25 14:45:00,
2013-03-25 14:50:00,35.8,27.3,29.74,East,90,8.5,10.4,71,0.00,,OVC,0.00,WeatherDisplay:10.37,2013-03-25 14:50:00,
2013-03-25 14:55:00,36.0,27.5,29.74,NE,45,12.2,12.2,71,0.00,,OVC,0.00,WeatherDisplay:10.37,2013-03-25 14:55:00,
2013-03-25 15:00:00,35.8,27.3,29.73,East,90,10.7,11.5,71,0.00,,OVC,0.00,WeatherDisplay:10.37,2013-03-25 15:00:00,
2013-03-25 15:05:00,35.4,26.9,29.73,NNE,22,9.7,9.7,71,0.00,,OVC,0.00,WeatherDisplay:10.37,2013-03-25 15:05:00,
2013-03-25 15:10:00,35.4,27.3,29.73,NE,45,6.7,10.4,72,0.00,,OVC,0.00,WeatherDisplay:10.37,2013-03-25 15:10:00,
2013-03-25 15:15:00,35.4,27.3,29.73,NE,45,11.5,13.8,72,0.00,,OVC,0.00,WeatherDisplay:10.37,2013-03-25 15:15:00,
2013-03-25 15:20:00,35.4,26.9,29.73,NE,45,6.6,8.1,71,0.00,,OVC,0.00,WeatherDisplay:10.37,2013-03-25 15:20:00,
2013-03-25 15:25:00,35.4,26.9,29.73,ESE,112,7.7,12.7,71,0.00,,OVC,0.00,WeatherDisplay:10.37,2013-03-25 15:25:00,
2013-03-25 15:30:00,35.4,26.9,29.73,ENE,68,6.1,6.9,71,0.00,,OVC,0.00,WeatherDisplay:10.37,2013-03-25 15:30:00,
2013-03-25 15:35:00,35.4,27.3,29.73,ENE,68,3.8,8.7,72,0.00,,OVC,0.00,WeatherDisplay:10.37,2013-03-25 15:35:00,
2013-03-25 15:40:00,35.4,26.9,29.73,ENE,68,17.1,18.4,71,0.00,,OVC,0.00,WeatherDisplay:10.37,2013-03-25 15:40:00,
2013-03-25 15:45:00,35.4,26.9,29.73,NE,45,4.5,4.5,71,0.00,,OVC,0.00,WeatherDisplay:10.37,2013-03-25 15:45:00,
2013-03-25 15:50:00,35.4,27.3,29.73,North,0,5.6,6.9,72,0.00,,OVC,0.00,WeatherDisplay:10.37,2013-03-25 15:50:00,
2013-03-25 15:55:00,35.2,27.1,29.73,ENE,68,12.2,12.2,72,0.00,,OVC,0.00,WeatherDisplay:10.37,2013-03-25 15:55:00,
2013-03-25 16:00:00,35.2,27.1,29.73,NE,45,11.5,11.5,72,0.00,,OVC,0.00,WeatherDisplay:10.37,2013-03-25 16:00:00,
2013-03-25 16:05:00,35.2,27.1,29.73,North,0,4.4,6.9,72,0.00,,OVC,0.00,WeatherDisplay:10.37,2013-03-25 16:05:00,
2013-03-25 16:10:00,34.9,26.8,29.73,ENE,68,9.8,10.4,72,0.00,,OVC,0.00,WeatherDisplay:10.37,2013-03-25 16:10:00,
2013-03-25 16:15:00,34.9,26.8,29.73,East,90,6.9,6.9,72,0.00,,OVC,0.00,WeatherDisplay:10.37,2013-03-25 16:15:00,
2013-03-25 16:20:00,34.9,27.1,29.73,NE,45,9.9,18.4,73,0.00,,OVC,0.00,WeatherDisplay:10.37,2013-03-25 16:20:00,
2013-03-25 16:26:00,34.9,27.1,29.73,NE,45,14.1,14.1,73,0.00,,OVC,0.00,WeatherDisplay:10.37,2013-03-25 16:26:00,
2013-03-25 16:32:00,34.7,26.9,29.73,NE,45,7.5,8.1,73,0.00,,OVC,0.00,WeatherDisplay:10.37,2013-03-25 16:32:00,
2013-03-25 16:37:00,34.5,26.8,29.73,NE,45,11.7,11.7,73,0.00,,OVC,0.00,WeatherDisplay:10.37,2013-03-25 16:37:00,
2013-03-25 16:42:00,34.3,26.6,29.73,ENE,68,6.7,6.9,73,0.00,,OVC,0.00,WeatherDisplay:10.37,2013-03-25 16:42:00,
2013-03-25 16:47:00,34.3,26.6,29.73,SSW,202,7.3,7.3,73,0.00,,OVC,0.00,WeatherDisplay:10.37,2013-03-25 16:47:00,
2013-03-25 16:52:00,34.3,26.6,29.72,SSE,158,2.8,5.8,73,0.00,,OVC,0.00,WeatherDisplay:10.37,2013-03-25 16:52:00,
2013-03-25 16:57:00,34.2,26.7,29.72,NE,45,7.5,13.8,74,0.00,,OVC,0.00,WeatherDisplay:10.37,2013-03-25 16:57:00,
2013-03-25 17:02:00,34.0,26.6,29.72,ENE,68,14.7,16.1,74,0.00,,OVC,0.00,WeatherDisplay:10.37,2013-03-25 17:02:00,
2013-03-25 17:07:00,34.0,26.6,29.73,NNE,22,7.8,9.2,74,0.00,,OVC,0.00,WeatherDisplay:10.37,2013-03-25 17:07:00,
2013-03-25 17:12:00,34.0,26.6,29.73,NNE,22,7.6,8.1,74,0.00,,OVC,0.00,WeatherDisplay:10.37,2013-03-25 17:12:00,
2013-03-25 17:17:00,33.8,26.4,29.73,NNW,338,8.2,8.2,74,0.00,,OVC,0.00,WeatherDisplay:10.37,2013-03-25 17:17:00,
2013-03-25 17:22:00,33.8,26.4,29.73,ENE,68,6.2,10.4,74,0.00,,OVC,0.00,WeatherDisplay:10.37,2013-03-25 17:22:00,
2013-03-25 17:27:00,33.6,26.5,29.72,NNE,22,11.5,11.5,75,0.00,,OVC,0.00,WeatherDisplay:10.37,2013-03-25 17:27:00,
2013-03-25 17:32:00,33.6,26.5,29.73,East,90,5.6,6.9,75,0.00,,OVC,0.00,WeatherDisplay:10.37,2013-03-25 17:32:00,
2013-03-25 17:37:00,33.6,26.5,29.73,East,90,6.3,6.3,75,0.00,,OVC,0.00,WeatherDisplay:10.37,2013-03-25 17:37:00,
2013-03-25 17:42:00,33.4,26.4,29.73,NNE,22,9.6,10.4,75,0.00,,OVC,0.00,WeatherDisplay:10.37,2013-03-25 17:42:00,
2013-03-25 17:47:00,33.4,26.4,29.73,East,90,9.9,9.9,75,0.00,,OVC,0.00,WeatherDisplay:10.37,2013-03-25 17:47:00,
2013-03-25 17:52:00,33.1,26.0,29.73,NE,45,7.9,9.2,75,0.00,,OVC,0.00,WeatherDisplay:10.37,2013-03-25 17:52:00,
2013-03-25 17:57:00,33.1,26.0,29.73,NNE,22,12.1,12.1,75,0.00,,OVC,0.00,WeatherDisplay:10.37,2013-03-25 17:57:00,
2013-03-25 18:02:00,33.1,26.0,29.73,NE,45,5.7,5.8,75,0.00,,OVC,0.00,WeatherDisplay:10.37,2013-03-25 18:02:00,
2013-03-25 18:07:00,32.9,26.2,29.73,NNE,22,5.4,9.2,76,0.00,,OVC,0.00,WeatherDisplay:10.37,2013-03-25 18:07:00,
2013-03-25 18:12:00,32.9,26.2,29.73,NNE,22,9.6,9.6,76,0.00,,OVC,0.00,WeatherDisplay:10.37,2013-03-25 18:12:00,
2013-03-25 18:17:00,32.9,26.2,29.73,East,90,9.4,9.4,76,0.00,,OVC,0.00,WeatherDisplay:10.37,2013-03-25 18:17:00,
2013-03-25 18:22:00,32.7,26.0,29.73,NNE,22,7.4,8.1,76,0.00,,OVC,0.00,WeatherDisplay:10.37,2013-03-25 18:22:00,
2013-03-25 18:27:00,32.7,26.0,29.73,NNE,22,5.8,5.8,76,0.00,,OVC,0.00,WeatherDisplay:10.37,2013-03-25 18:27:00,
2013-03-25 18:32:00,32.7,26.0,29.73,North,0,3.5,3.5,76,0.00,,OVC,0.00,WeatherDisplay:10.37,2013-03-25 18:32:00,
2013-03-25 18:38:00,32.5,25.8,29.73,NE,45,9.7,13.8,76,0.00,,OVC,0.00,WeatherDisplay:10.37,2013-03-25 18:38:00,
2013-03-25 18:43:00,32.5,25.8,29.73,NNE,22,6.0,6.0,76,0.00,,OVC,0.00,WeatherDisplay:10.37,2013-03-25 18:43:00,
2013-03-25 18:48:00,32.4,25.6,29.73,ENE,68,11.2,11.5,76,0.00,,OVC,0.00,WeatherDisplay:10.37,2013-03-25 18:48:00,
2013-03-25 18:53:00,32.4,25.6,29.73,ENE,68,9.9,11.5,76,0.00,,OVC,0.00,WeatherDisplay:10.37,2013-03-25 18:53:00,
2013-03-25 18:58:00,32.2,25.5,29.73,SE,135,8.9,9.2,76,0.00,,OVC,0.00,WeatherDisplay:10.37,2013-03-25 18:58:00,
2013-03-25 19:03:00,32.4,25.6,29.73,NE,45,8.1,9.2,76,0.00,,OVC,0.00,WeatherDisplay:10.37,2013-03-25 19:03:00,
2013-03-25 19:08:00,32.4,26.0,29.73,SE,135,7.7,10.3,77,0.00,,OVC,0.00,WeatherDisplay:10.37,2013-03-25 19:08:00,
2013-03-25 19:13:00,32.4,26.0,29.73,North,0,7.2,9.2,77,0.00,,OVC,0.00,WeatherDisplay:10.37,2013-03-25 19:13:00,
2013-03-25 19:18:00,32.2,25.8,29.74,NNE,22,4.0,4.0,77,0.00,,OVC,0.00,WeatherDisplay:10.37,2013-03-25 19:18:00,
2013-03-25 19:23:00,32.2,25.8,29.74,ENE,68,6.3,15.0,77,0.00,,OVC,0.00,WeatherDisplay:10.37,2013-03-25 19:23:00,
2013-03-25 19:28:00,32.2,25.8,29.74,NE,45,4.9,9.2,77,0.00,,OVC,0.00,WeatherDisplay:10.37,2013-03-25 19:28:00,
2013-03-25 19:33:00,32.2,25.8,29.74,ENE,68,8.4,8.4,77,0.00,,OVC,0.00,WeatherDisplay:10.37,2013-03-25 19:33:00,
2013-03-25 19:38:00,32.2,26.1,29.74,ENE,68,8.5,8.5,78,0.00,,OVC,0.00,WeatherDisplay:10.37,2013-03-25 19:38:00,
2013-03-25 19:43:00,32.2,26.1,29.73,NE,45,8.3,8.3,78,0.00,,OVC,0.00,WeatherDisplay:10.37,2013-03-25 19:43:00,
2013-03-25 19:48:00,32.2,26.1,29.74,ENE,68,8.3,8.3,78,0.00,,OVC,0.00,WeatherDisplay:10.37,2013-03-25 19:48:00,
2013-03-25 19:53:00,32.2,26.1,29.74,NE,45,10.4,10.4,78,0.00,,OVC,0.00,WeatherDisplay:10.37,2013-03-25 19:53:00,
2013-03-25 19:58:00,32.2,26.1,29.74,NE,45,8.5,10.4,78,0.00,,OVC,0.00,WeatherDisplay:10.37,2013-03-25 19:58:00,
2013-03-25 20:03:00,32.2,26.1,29.74,ENE,68,6.8,6.8,78,0.00,,OVC,0.00,WeatherDisplay:10.37,2013-03-25 20:03:00,
2013-03-25 20:08:00,32.2,26.4,29.74,NNE,22,4.2,8.1,79,0.00,,OVC,0.00,WeatherDisplay:10.37,2013-03-25 20:08:00,
2013-03-25 20:13:00,32.2,26.4,29.74,NE,45,10.3,10.4,79,0.00,,OVC,0.00,WeatherDisplay:10.37,2013-03-25 20:13:00,
2013-03-25 20:18:00,32.2,26.4,29.73,East,90,11.7,15.0,79,0.00,,OVC,0.00,WeatherDisplay:10.37,2013-03-25 20:18:00,
2013-03-25 20:23:00,32.2,26.1,29.73,NE,45,5.0,8.1,78,0.00,,OVC,0.00,WeatherDisplay:10.37,2013-03-25 20:23:00,
2013-03-25 20:28:00,32.2,26.1,29.74,NNE,22,5.5,5.8,78,0.00,,OVC,0.00,WeatherDisplay:10.37,2013-03-25 20:28:00,
2013-03-25 20:33:00,32.2,25.8,29.73,NE,45,7.6,11.5,77,0.00,,OVC,0.00,WeatherDisplay:10.37,2013-03-25 20:33:00,
2013-03-25 20:38:00,32.2,25.8,29.74,NE,45,6.9,12.7,77,0.00,,OVC,0.00,WeatherDisplay:10.37,2013-03-25 20:38:00,
2013-03-25 20:43:00,32.2,25.8,29.74,East,90,4.7,11.5,77,0.00,,OVC,0.00,WeatherDisplay:10.37,2013-03-25 20:43:00,
2013-03-25 20:48:00,32.2,25.8,29.74,NNE,22,7.8,12.7,77,0.00,,OVC,0.00,WeatherDisplay:10.37,2013-03-25 20:48:00,
2013-03-25 20:53:00,32.0,25.6,29.74,NE,45,11.1,13.8,77,0.00,,OVC,0.00,WeatherDisplay:10.37,2013-03-25 20:53:00,
2013-03-25 20:58:00,31.8,25.4,29.73,ENE,68,5.4,11.5,77,0.00,,OVC,0.00,WeatherDisplay:10.37,2013-03-25 20:58:00,
2013-03-25 21:03:00,31.8,25.4,29.73,NE,45,4.0,4.0,77,0.00,,OVC,0.00,WeatherDisplay:10.37,2013-03-25 21:03:00,
2013-03-25 21:08:00,31.8,25.1,29.73,NE,45,10.2,10.4,76,0.00,,OVC,0.00,WeatherDisplay:10.37,2013-03-25 21:08:00,
2013-03-25 21:13:00,31.8,25.1,29.73,NE,45,5.1,5.1,76,0.00,,OVC,0.00,WeatherDisplay:10.37,2013-03-25 21:13:00,
2013-03-25 21:18:00,31.8,25.1,29.73,East,90,4.9,6.9,76,0.00,,OVC,0.00,WeatherDisplay:10.37,2013-03-25 21:18:00,
2013-03-25 21:23:00,31.8,24.8,29.73,SSE,158,7.1,7.1,75,0.00,,OVC,0.00,WeatherDisplay:10.37,2013-03-25 21:23:00,
2013-03-25 21:28:00,31.8,24.8,29.73,NE,45,8.2,11.5,75,0.00,,OVC,0.00,WeatherDisplay:10.37,2013-03-25 21:28:00,
2013-03-25 21:33:00,31.8,24.8,29.73,NNE,22,11.8,11.8,75,0.00,,OVC,0.00,WeatherDisplay:10.37,2013-03-25 21:33:00,
2013-03-25 21:38:00,31.8,24.8,29.73,NE,45,6.1,6.9,75,0.00,,OVC,0.00,WeatherDisplay:10.37,2013-03-25 21:38:00,
2013-03-25 21:43:00,31.8,24.8,29.73,North,0,11.3,11.3,75,0.00,,OVC,0.00,WeatherDisplay:10.37,2013-03-25 21:43:00,
2013-03-25 21:48:00,31.8,24.8,29.73,NE,45,7.2,8.1,75,0.00,,OVC,0.00,WeatherDisplay:10.37,2013-03-25 21:48:00,
2013-03-25 21:53:00,31.8,24.8,29.73,NE,45,13.6,13.6,75,0.00,,OVC,0.00,WeatherDisplay:10.37,2013-03-25 21:53:00,
2013-03-25 21:58:00,31.8,25.1,29.74,ENE,68,6.1,8.1,76,0.00,,OVC,0.00,WeatherDisplay:10.37,2013-03-25 21:58:00,
2013-03-25 22:03:00,31.6,24.9,29.73,NE,45,10.8,11.5,76,0.00,,OVC,0.00,WeatherDisplay:10.37,2013-03-25 22:03:00,
2013-03-25 22:08:00,31.6,24.9,29.73,NE,45,6.5,6.9,76,0.00,,OVC,0.00,WeatherDisplay:10.37,2013-03-25 22:08:00,
2013-03-25 22:13:00,31.6,25.3,29.73,NNE,22,10.9,10.9,77,0.00,,OVC,0.00,WeatherDisplay:10.37,2013-03-25 22:13:00,
2013-03-25 22:18:00,31.6,25.3,29.73,NE,45,11.7,12.7,77,0.00,,OVC,0.00,WeatherDisplay:10.37,2013-03-25 22:18:00,
2013-03-25 22:24:00,31.6,25.3,29.73,ENE,68,5.7,8.1,77,0.00,,OVC,0.00,WeatherDisplay:10.37,2013-03-25 22:24:00,
2013-03-25 22:29:00,31.5,25.1,29.73,ENE,68,8.6,9.2,77,0.00,,OVC,0.00,WeatherDisplay:10.37,2013-03-25 22:29:00,
2013-03-25 22:34:00,31.5,25.1,29.73,NE,45,5.9,5.9,77,0.00,,OVC,0.00,WeatherDisplay:10.37,2013-03-25 22:34:00,
2013-03-25 22:39:00,31.6,25.3,29.73,NNE,22,11.5,13.8,77,0.00,,OVC,0.00,WeatherDisplay:10.37,2013-03-25 22:39:00,
2013-03-25 22:44:00,31.6,24.9,29.73,ENE,68,8.9,9.2,76,0.00,,OVC,0.00,WeatherDisplay:10.37,2013-03-25 22:44:00,
2013-03-25 22:49:00,31.5,24.8,29.73,NNE,22,5.4,5.8,76,0.00,,OVC,0.00,WeatherDisplay:10.37,2013-03-25 22:49:00,
2013-03-25 22:54:00,31.3,24.6,29.73,NNE,22,5.8,6.9,76,0.00,,OVC,0.00,WeatherDisplay:10.37,2013-03-25 22:54:00,
2013-03-25 22:59:00,31.3,24.6,29.73,North,0,5.4,6.9,76,0.00,,OVC,0.00,WeatherDisplay:10.37,2013-03-25 22:59:00,
2013-03-25 23:04:00,31.3,24.6,29.73,NNE,22,10.8,11.5,76,0.00,,OVC,0.00,WeatherDisplay:10.37,2013-03-25 23:04:00,
2013-03-25 23:09:00,31.3,24.6,29.73,ENE,68,8.8,8.8,76,0.00,,OVC,0.00,WeatherDisplay:10.37,2013-03-25 23:09:00,
2013-03-25 23:14:00,31.3,24.6,29.73,NNE,22,4.2,4.6,76,0.00,,OVC,0.00,WeatherDisplay:10.37,2013-03-25 23:14:00,
2013-03-25 23:19:00,31.3,24.6,29.72,ENE,68,8.4,8.4,76,0.00,,OVC,0.00,WeatherDisplay:10.37,2013-03-25 23:19:00,
2013-03-25 23:24:00,31.1,24.4,29.73,NE,45,4.8,4.8,76,0.00,,OVC,0.00,WeatherDisplay:10.37,2013-03-25 23:24:00,
2013-03-25 23:29:00,31.1,24.4,29.73,NNE,22,4.3,5.8,76,0.00,,OVC,0.00,WeatherDisplay:10.37,2013-03-25 23:29:00,
2013-03-25 23:34:00,30.9,24.2,29.73,North,0,8.6,10.4,76,0.00,,OVC,0.00,WeatherDisplay:10.37,2013-03-25 23:34:00,
2013-03-25 23:39:00,30.9,24.2,29.73,NE,45,8.8,8.8,76,0.00,,OVC,0.00,WeatherDisplay:10.37,2013-03-25 23:39:00,
2013-03-25 23:44:00,30.9,24.2,29.72,NNE,22,6.5,6.9,76,0.00,,OVC,0.00,WeatherDisplay:10.37,2013-03-25 23:44:00,
2013-03-25 23:49:00,30.9,24.6,29.72,NNE,22,8.3,8.3,77,0.00,,OVC,0.00,WeatherDisplay:10.37,2013-03-25 23:49:00,
2013-03-25 23:54:00,30.7,24.4,29.72,ENE,68,8.2,8.2,77,0.00,,OVC,0.00,WeatherDisplay:10.37,2013-03-25 23:54:00,
2013-03-25 23:59:00,30.7,24.4,29.72,NE,45,12.3,12.7,77,0.00,,OVC,0.00,WeatherDisplay:10.37,2013-03-25 23:59:00,